Le nostre stazioni meteo in Italia

Pubblicità
Il mio iltempo24.it
Roma/Ciampino, Italia (16239): Temperatura & dewpoint: 17.01.2019 05:00:00 - 23.01.2019 05:00:00 (CET)Roma/Ciampino, Italia (16239): velocità del vento: 17.01.2019 05:00:00 - 23.01.2019 05:00:00 (CET)Roma/Ciampino, Italia (16239): direzione del vento: 17.01.2019 05:00:00 - 23.01.2019 05:00:00 (CET)Roma/Ciampino, Italia (16239): reduced air pressure: 17.01.2019 05:00:00 - 23.01.2019 05:00:00 (CET)Roma/Ciampino, Italia (16239): visibility: 17.01.2019 05:00:00 - 23.01.2019 05:00:00 (CET)Roma/Ciampino, Italia (16239): precipitazioni: 17.01.2019 05:00:00 - 23.01.2019 05:00:00 (CET)
Data & Tempo tt [°C] td [°C] ff [km/h] ff [kn] dd ppp [hPa] vv [km] rr [mm]
23.01.2019 05:00:00 4,0 3,0 4 2 - - 10 -
23.01.2019 04:00:00 4,3 2,7 5 3 E 1000,2 10 0,0
23.01.2019 03:00:00 4,0 3,0 8 4 E - 10 -
23.01.2019 02:00:00 4,0 3,0 9 5 SO - 10 -
23.01.2019 01:00:00 3,3 1,6 9 5 ESE 1001,8 10 -
23.01.2019 00:00:00 3,0 2,0 9 5 SE - 10 -
22.01.2019 23:00:00 4,0 2,0 8 4 SE - 10 -
22.01.2019 22:00:00 3,4 2,1 8 4 SE 1002,8 10 0,0
22.01.2019 21:00:00 4,0 3,0 5 3 SE - 10 -
22.01.2019 20:00:00 6,0 4,0 4 2 - - 10 -
22.01.2019 19:00:00 6,5 3,5 4 2 S 1003,1 10 -
22.01.2019 18:00:00 6,0 4,0 4 2 - - 10 -
22.01.2019 17:00:00 7,0 4,0 13 7 OSO - 10 -
22.01.2019 16:00:00 7,2 4,2 11 6 OSO 1002,9 10 0,0
22.01.2019 15:00:00 7,0 5,0 5 3 OSO - 10 -
22.01.2019 14:00:00 7,0 5,0 2 1 - - 10 -
22.01.2019 13:00:00 5,7 4,3 5 3 N 1003,2 10 -
22.01.2019 12:00:00 5,0 4,0 11 6 NNO - 10 -
22.01.2019 11:00:00 5,0 4,0 15 8 N - 10 -
22.01.2019 10:00:00 5,0 4,5 22 12 N 1003,0 10 0,0
22.01.2019 09:00:00 5,0 5,0 13 7 N - 2,0 -
22.01.2019 08:00:00 6,0 5,0 21 11 NNO - 4,0 -
22.01.2019 07:00:00 5,9 5,0 16 9 N 1002,5 10 -
22.01.2019 06:00:00 6,0 5,0 16 9 NNE - 10 -
22.01.2019 05:00:00 - - - - - - - -
22.01.2019 04:00:00 6,5 5,5 21 11 N 1003,8 - 0,0
22.01.2019 03:00:00 7,0 6,0 16 9 NNE - 10 -
22.01.2019 02:00:00 7,0 6,0 24 13 NNE - 10 -
22.01.2019 01:00:00 7,3 5,6 24 13 NNE 1006,0 10 -
22.01.2019 00:00:00 7,0 6,0 18 10 NNE - 10 -
21.01.2019 23:00:00 7,0 6,0 16 9 NNE - 10 -
21.01.2019 22:00:00 7,9 5,2 15 8 ENE 1008,4 10 0,0
21.01.2019 21:00:00 9,0 5,0 15 8 ENE - 10 -
21.01.2019 20:00:00 9,0 5,0 16 9 ENE - 10 -
21.01.2019 19:00:00 9,6 4,6 16 9 ENE 1008,9 10 -
21.01.2019 18:00:00 9,0 5,0 16 9 E - 10 -
21.01.2019 17:00:00 10,0 5,0 16 9 E - 10 -
21.01.2019 16:00:00 9,6 5,7 11 6 E 1009,3 10 0,0
21.01.2019 15:00:00 10,0 6,0 11 6 ENE - 10 -
21.01.2019 14:00:00 9,0 8,0 11 6 N - 10 -
21.01.2019 13:00:00 8,9 7,6 9 5 NNE 1010,9 10 -
21.01.2019 12:00:00 8,0 7,0 5 3 OSO - 8 -
21.01.2019 11:00:00 10,0 6,0 8 4 - - 10 -
21.01.2019 10:00:00 9,6 6,0 11 6 NE 1011,6 - 0,0
21.01.2019 09:00:00 9,0 5,0 9 5 ENE - 10 -
21.01.2019 08:00:00 8,0 5,0 11 6 NNE - 10 -
21.01.2019 07:00:00 7,9 5,2 8 4 NNO 1011,2 10 -
21.01.2019 06:00:00 7,0 5,0 2 1 - - 10 -
21.01.2019 05:00:00 - - - - - - - -
21.01.2019 04:00:00 7,0 5,4 8 4 N 1011,3 10 0,0
21.01.2019 03:00:00 7,0 6,0 8 4 N - 10 -
21.01.2019 02:00:00 8,0 5,0 9 5 NNE - 10 -
21.01.2019 01:00:00 7,9 5,3 13 7 NE 1011,8 10 -
21.01.2019 00:00:00 8,0 5,0 11 6 N - 10 -
20.01.2019 23:00:00 8,0 6,0 4 2 - - 10 -
20.01.2019 22:00:00 7,8 5,0 5 3 - 1011,9 10 0,0
20.01.2019 21:00:00 9,0 5,0 4 2 - - 10 -
20.01.2019 20:00:00 8,0 5,0 13 7 NNE - 10 -
20.01.2019 19:00:00 8,5 4,7 9 5 NE 1011,5 8 -
20.01.2019 18:00:00 9,0 5,0 8 4 ENE - 10 -
20.01.2019 17:00:00 9,0 4,0 11 6 ENE - 10 -
20.01.2019 16:00:00 9,4 4,4 5 3 SE 1011,3 10 0,0
20.01.2019 15:00:00 11,0 5,0 13 7 - - 10 -
20.01.2019 14:00:00 11,0 5,0 13 7 SE - 10 -
20.01.2019 13:00:00 11,0 5,3 11 6 SE 1012,1 10 -
20.01.2019 12:00:00 10,0 5,0 8 4 SE - 10 -
20.01.2019 11:00:00 9,0 6,0 5 3 N - 10 -
20.01.2019 10:00:00 8,1 5,3 5 3 NE 1013,3 10 0,0
20.01.2019 09:00:00 7,0 5,0 8 4 E - 9 -
20.01.2019 08:00:00 7,0 5,0 5 3 SSE - 10 -
20.01.2019 07:00:00 6,7 5,0 8 4 E 1012,7 8 -
20.01.2019 06:00:00 7,0 5,0 8 4 SE - 10 -
20.01.2019 05:00:00 7,0 4,0 4 2 - - 10 -
20.01.2019 04:00:00 6,9 3,2 9 5 E 1012,5 10 0,0
20.01.2019 03:00:00 7,0 3,0 11 6 E - 10 -
20.01.2019 02:00:00 6,0 4,0 8 4 ESE - 10 -
20.01.2019 01:00:00 6,3 3,3 8 4 E 1013,2 10 -
20.01.2019 00:00:00 6,0 3,0 9 5 ESE - 10 -
19.01.2019 23:00:00 6,0 3,0 9 5 E - 10 -
19.01.2019 22:00:00 6,3 2,6 5 3 ESE 1013,4 - 0,0
19.01.2019 21:00:00 - - - - - - - -
19.01.2019 20:00:00 8,0 4,0 9 5 S - 10 -
19.01.2019 19:00:00 7,6 4,7 4 2 E 1013,1 10 -
19.01.2019 18:00:00 8,0 4,0 5 3 NNE - 10 -
19.01.2019 17:00:00 10,0 5,0 5 3 SSO - 10 -
19.01.2019 16:00:00 10,7 4,5 8 4 SE 1012,5 10 0,0
19.01.2019 15:00:00 9,0 4,0 13 7 SE - 10 -
19.01.2019 14:00:00 9,0 5,0 9 5 SSE - 10 -
19.01.2019 13:00:00 10,0 4,9 15 8 ESE 1013,3 10 -
19.01.2019 12:00:00 8,0 5,0 15 8 S - 10 -
19.01.2019 11:00:00 8,0 5,0 11 6 OSO - 10 -
19.01.2019 10:00:00 9,7 4,6 8 4 SSE 1013,7 10 0,0
19.01.2019 09:00:00 7,0 3,0 9 5 SE - 10 -
19.01.2019 08:00:00 6,0 3,0 8 4 ESE - 10 -
19.01.2019 07:00:00 6,8 3,4 9 5 ESE 1013,1 10 -
19.01.2019 06:00:00 7,0 4,0 9 5 SE - 10 -
19.01.2019 05:00:00 7,0 4,0 8 4 SE - 10 -
19.01.2019 04:00:00 6,7 3,7 8 4 SSE 1013,6 10 0,0
19.01.2019 03:00:00 8,0 4,0 9 5 SE - 10 -
19.01.2019 02:00:00 7,0 4,0 11 6 SE - 10 -
19.01.2019 01:00:00 6,5 3,7 9 5 SE 1014,2 10 -
19.01.2019 00:00:00 7,0 4,0 9 5 ESE - 10 -
18.01.2019 23:00:00 8,0 5,0 5 3 SE - 10 -
18.01.2019 22:00:00 7,1 4,8 8 4 ESE 1014,1 10 0,0
18.01.2019 21:00:00 8,0 5,0 8 4 E - 10 -
18.01.2019 20:00:00 8,0 5,0 8 4 SE - 10 -
18.01.2019 19:00:00 7,4 4,8 8 4 SE 1013,7 10 -
18.01.2019 18:00:00 10,0 6,0 4 2 S - 10 -
18.01.2019 17:00:00 12,0 7,0 5 3 SO - 10 -
18.01.2019 16:00:00 12,0 6,4 9 5 SO 1013,1 10 0,0
18.01.2019 15:00:00 12,0 6,0 13 7 SO - 10 -
18.01.2019 14:00:00 12,0 6,0 15 8 SO - 10 -
18.01.2019 13:00:00 13,0 8,0 16 9 SSO 1012,8 10 -
18.01.2019 12:00:00 12,0 9,0 13 7 SSO - 8 -
18.01.2019 11:00:00 13,0 9,0 13 7 S - 10 -
18.01.2019 10:00:00 12,0 8,8 11 6 SSE 1013,4 10 0,0
18.01.2019 09:00:00 11,0 8,0 9 5 S - 10 -
18.01.2019 08:00:00 11,0 8,0 13 7 SSE - 10 -
18.01.2019 07:00:00 9,9 8,3 9 5 SSE 1012,5 10 -
18.01.2019 06:00:00 10,0 8,0 9 5 SSE - 10 -
18.01.2019 05:00:00 10,0 8,0 8 4 S - 10 -
18.01.2019 04:00:00 10,4 7,7 13 7 SSE 1013,1 10 0,0
18.01.2019 03:00:00 10,0 8,0 9 5 SSE - 10 -
18.01.2019 02:00:00 10,0 8,0 13 7 SSE - 10 -
18.01.2019 01:00:00 10,0 8,1 11 6 SSE 1014,3 10 -
18.01.2019 00:00:00 - - - - - - - -
17.01.2019 23:00:00 10,0 8,0 15 8 SE - 10 -
17.01.2019 22:00:00 9,5 7,6 13 7 SSE 1014,8 10 0,0
17.01.2019 21:00:00 10,0 8,0 16 9 SSE - 10 -
17.01.2019 20:00:00 10,0 9,0 18 10 SSO - 6 -
17.01.2019 19:00:00 11,0 9,0 21 11 S - 10 -
17.01.2019 18:00:00 11,0 8,0 24 13 SSE - 10 -
17.01.2019 17:00:00 - - - - - - - -
17.01.2019 16:00:00 11,7 8,0 21 11 SSE 1015,3 10 0,0
17.01.2019 15:00:00 12,0 7,0 21 11 SE - 10 -
17.01.2019 14:00:00 12,0 7,0 24 13 SE - 10 -
17.01.2019 13:00:00 12,6 7,6 26 14 SE 1016,8 10 -
17.01.2019 12:00:00 11,0 7,0 21 11 SE - 10 -
17.01.2019 11:00:00 12,0 6,0 22 12 SE - 10 -
17.01.2019 10:00:00 11,6 5,7 21 11 SE 1018,6 10 0,0
17.01.2019 09:00:00 11,0 5,0 22 12 SE - 10 -
17.01.2019 08:00:00 11,0 5,0 22 12 SE - 10 -
17.01.2019 07:00:00 10,6 4,6 22 12 SE 1018,8 10 -
17.01.2019 06:00:00 10,0 4,0 22 12 SE - 10 -
17.01.2019 05:00:00 - - - - - - - -

tt = Temperatura
td = dewpoint
ff = velocità del vento
dd = direzione del vento
ppp = reduced air pressure
vv = visibility
rr = precipitazioni

Stazioni seguenti

WeatherPro
AMSI
MeteoEarth